User: anonymous   Login
Location: Spring Creek
(38.2870°N, 100.2160°W)
Time: 12:08:26
(UTC+00:00)
Language:

deb Agena D - Orbit

View from above orbital plane
View from above orbital plane
View from above satellite
View from above satellite

Ground track
Ground track

The orbit data is extracted from the following two-line orbital elements,

1 04820U 70025EB  21339.84693948  .00002812  00000-0  98429-3 0  9995
2 04820  99.7045  70.8532 0022620 356.4934   3.6086 14.35944192605681
Epoch (UTC): 05 December 2021 20:19:35
Eccentricity: 0.0022620
inclination: 99.7045°
perigee height: 756 km
apogee height: 788 km
right ascension of ascending node: 70.8532°
argument of perigee: 356.4934°
revolutions per day: 14.35944192
mean anomaly at epoch: 3.6086°
orbit number at epoch: 60568

The dashed part of the orbit path shows where the satellite is in the earth's shadow,  

DLR